| time (UTC) | temp F | wind direction | speed MPH | gust MPH | rain 1hr in | rain 24hr in | rain mn in | humidity % | barometer mb |
| 20260506211621 | 83 | 135 | 0.0 | 7.0 | 0.00 | 0.00 | 0.00 | 71 | 1003.2 |
| 20260506210559 | 84 | 135 | 2.0 | 7.0 | 0.00 | 0.00 | 0.00 | 70 | 1003.5 |
| 20260506210049 | 84 | 135 | 2.0 | 6.0 | 0.00 | 0.00 | 0.00 | 70 | 1003.5 |
| 20260506205538 | 84 | 113 | 2.0 | 6.0 | 0.00 | 0.00 | 0.00 | 70 | 1003.7 |
| 20260506204519 | 85 | 135 | 2.0 | 6.0 | 0.00 | 0.00 | 0.00 | 70 | 1003.6 |
| 20260506204009 | 85 | 135 | 2.0 | 6.0 | 0.00 | 0.00 | 0.00 | 70 | 1003.8 |
| 20260506203458 | 85 | 113 | 2.0 | 4.0 | 0.00 | 0.00 | 0.00 | 69 | 1003.8 |
| 20260506202949 | 85 | 113 | 2.0 | 6.0 | 0.00 | 0.00 | 0.00 | 69 | 1003.9 |
| 20260506202438 | 85 | 113 | 2.0 | 8.0 | 0.00 | 0.00 | 0.00 | 68 | 1003.9 |
| 20260506201928 | 86 | 90 | 4.0 | 8.0 | 0.00 | 0.00 | 0.00 | 67 | 1003.9 |
| 20260506200908 | 86 | 90 | 2.0 | 7.0 | 0.00 | 0.00 | 0.00 | 66 | 1003.7 |
| 20260506200358 | 87 | 158 | 3.0 | 6.0 | 0.00 | 0.00 | 0.00 | 66 | 1003.8 |
| 20260506195848 | 87 | 90 | 3.0 | 6.0 | 0.00 | 0.00 | 0.00 | 65 | 1003.8 |
| 20260506195337 | 87 | 90 | 3.0 | 6.0 | 0.00 | 0.00 | 0.00 | 64 | 1003.7 |
| 20260506194827 | 86 | 113 | 2.0 | 6.0 | 0.00 | 0.00 | 0.00 | 66 | 1003.9 |
| 20260506194317 | 87 | 68 | 2.0 | 7.0 | 0.00 | 0.00 | 0.00 | 64 | 1003.9 |
| 20260506193807 | 87 | 113 | 4.0 | 9.0 | 0.00 | 0.00 | 0.00 | 64 | 1004.1 |
| 20260506193257 | 87 | 68 | 4.0 | 9.0 | 0.00 | 0.00 | 0.00 | 65 | 1004.0 |
| 20260506192747 | 87 | 90 | 2.0 | 7.0 | 0.00 | 0.00 | 0.00 | 64 | 1004.4 |
| 20260506191726 | 87 | 90 | 3.0 | 8.0 | 0.00 | 0.00 | 0.00 | 63 | 1004.3 |
| 20260506191217 | 88 | 135 | 4.0 | 8.0 | 0.00 | 0.00 | 0.00 | 63 | 1004.3 |
| 20260506190707 | 88 | 68 | 4.0 | 8.0 | 0.00 | 0.00 | 0.00 | 63 | 1004.3 |
| 20260506190156 | 88 | 113 | 5.0 | 9.0 | 0.00 | 0.00 | 0.00 | 61 | 1004.6 |
| 20260506185646 | 88 | 90 | 4.0 | 9.0 | 0.00 | 0.00 | 0.00 | 62 | 1004.3 |
| 20260506185136 | 88 | 90 | 3.0 | 11.0 | 0.00 | 0.00 | 0.00 | 63 | 1004.7 |
| 20260506184626 | 88 | 113 | 7.0 | 11.0 | 0.00 | 0.00 | 0.00 | 61 | 1004.6 |
| 20260506184116 | 89 | 90 | 3.0 | 11.0 | 0.00 | 0.00 | 0.00 | 62 | 1004.5 |
| 20260506183605 | 89 | 113 | 3.0 | 9.0 | 0.00 | 0.00 | 0.00 | 60 | 1004.7 |
| 20260506183056 | 90 | 90 | 4.0 | 11.0 | 0.00 | 0.00 | 0.00 | 60 | 1004.6 |
| 20260506182546 | 91 | 68 | 4.0 | 11.0 | 0.00 | 0.00 | 0.00 | 58 | 1004.8 |
| 20260506182036 | 90 | 68 | 4.0 | 11.0 | 0.00 | 0.00 | 0.00 | 60 | 1004.9 |
| 20260506181526 | 90 | 68 | 4.0 | 11.0 | 0.00 | 0.00 | 0.00 | 58 | 1004.9 |
| 20260506181015 | 89 | 45 | 4.0 | 11.0 | 0.00 | 0.00 | 0.00 | 60 | 1005.3 |
| 20260506180505 | 89 | 90 | 4.0 | 13.0 | 0.00 | 0.00 | 0.00 | 59 | 1005.0 |
| 20260506175445 | 90 | 45 | 6.0 | 11.0 | 0.00 | 0.00 | 0.00 | 57 | 1005.2 |
| 20260506174935 | 91 | 113 | 2.0 | 11.0 | 0.00 | 0.00 | 0.00 | 56 | 1005.0 |
| 20260506174424 | 91 | 68 | 4.0 | 11.0 | 0.00 | 0.00 | 0.00 | 58 | 1005.3 |
| 20260506173406 | 91 | 68 | 2.0 | 13.0 | 0.00 | 0.00 | 0.00 | 58 | 1005.6 |
| 20260506172854 | 90 | 158 | 4.0 | 13.0 | 0.00 | 0.00 | 0.00 | 57 | 1005.7 |
| 20260506172344 | 90 | 68 | 6.0 | 11.0 | 0.00 | 0.00 | 0.00 | 58 | 1005.9 |
| 20260506171834 | 89 | 90 | 4.0 | 11.0 | 0.00 | 0.00 | 0.00 | 60 | 1005.7 |
| 20260506171324 | 89 | 45 | 4.0 | 11.0 | 0.00 | 0.00 | 0.00 | 61 | 1005.9 |
| 20260506170813 | 89 | 113 | 4.0 | 11.0 | 0.00 | 0.00 | 0.00 | 61 | 1005.9 |
| 20260506165754 | 89 | 90 | 4.0 | 13.0 | 0.00 | 0.00 | 0.00 | 64 | 1006.3 |
| 20260506165243 | 88 | 90 | 2.0 | 13.0 | 0.00 | 0.00 | 0.00 | 64 | 1006.4 |
| 20260506164733 | 88 | 113 | 2.0 | 14.0 | 0.00 | 0.00 | 0.00 | 64 | 1006.5 |
| 20260506164223 | 88 | 90 | 6.0 | 14.0 | 0.00 | 0.00 | 0.00 | 62 | 1006.7 |
| 20260506163713 | 89 | 135 | 3.0 | 9.0 | 0.00 | 0.00 | 0.00 | 63 | 1006.6 |
| 20260506163203 | 88 | 113 | 3.0 | 9.0 | 0.00 | 0.00 | 0.00 | 64 | 1007.0 |
| 20260506162653 | 87 | 113 | 3.0 | 8.0 | 0.00 | 0.00 | 0.00 | 65 | 1007.0 |
| 20260506162143 | 87 | 113 | 4.0 | 9.0 | 0.00 | 0.00 | 0.00 | 65 | 1007.0 |
| 20260506161632 | 86 | 90 | 4.0 | 11.0 | 0.00 | 0.00 | 0.00 | 65 | 1006.8 |
| 20260506161123 | 87 | 113 | 4.0 | 11.0 | 0.00 | 0.00 | 0.00 | 64 | 1007.3 |
| 20260506160612 | 87 | 113 | 4.0 | 11.0 | 0.00 | 0.00 | 0.00 | 64 | 1007.3 |
| 20260506155042 | 87 | 158 | 4.0 | 11.0 | 0.00 | 0.00 | 0.00 | 66 | 1007.8 |
| 20260506154531 | 87 | 158 | 4.0 | 9.0 | 0.00 | 0.00 | 0.00 | 66 | 1007.8 |
| 20260506154021 | 87 | 113 | 2.0 | 9.0 | 0.00 | 0.00 | 0.00 | 67 | 1007.9 |
| 20260506153512 | 86 | 135 | 5.0 | 9.0 | 0.00 | 0.00 | 0.00 | 66 | 1008.1 |
| 20260506153002 | 87 | 90 | 3.0 | 9.0 | 0.00 | 0.00 | 0.00 | 66 | 1008.1 |
| 20260506152451 | 87 | 68 | 4.0 | 9.0 | 0.00 | 0.00 | 0.00 | 65 | 1008.1 |
| 20260506151941 | 86 | 90 | 3.0 | 11.0 | 0.00 | 0.00 | 0.00 | 66 | 1007.9 |
| 20260506151431 | 86 | 113 | 8.0 | 11.0 | 0.00 | 0.00 | 0.00 | 66 | 1008.3 |
| 20260506150923 | 87 | 113 | 4.0 | 9.0 | 0.00 | 0.00 | 0.00 | 66 | 1008.6 |
| 20260506150411 | 87 | 135 | 4.0 | 9.0 | 0.00 | 0.00 | 0.00 | 65 | 1008.7 |
| 20260506145901 | 85 | 68 | 4.0 | 11.0 | 0.00 | 0.00 | 0.00 | 66 | 1008.7 |
| 20260506144840 | 86 | 68 | 4.0 | 9.0 | 0.00 | 0.00 | 0.00 | 66 | 1009.0 |
| 20260506143821 | 86 | 158 | 4.0 | 8.0 | 0.00 | 0.00 | 0.00 | 66 | 1009.5 |
| 20260506142800 | 87 | 113 | 2.0 | 9.0 | 0.00 | 0.00 | 0.00 | 66 | 1009.3 |
| 20260506142251 | 85 | 90 | 4.0 | 11.0 | 0.00 | 0.00 | 0.00 | 67 | 1009.7 |
| 20260506141741 | 84 | 45 | 6.0 | 11.0 | 0.00 | 0.00 | 0.00 | 67 | 1009.4 |
| 20260506141230 | 84 | 68 | 5.0 | 9.0 | 0.00 | 0.00 | 0.00 | 68 | 1009.4 |
| 20260506140719 | 85 | 90 | 4.0 | 11.0 | 0.00 | 0.00 | 0.00 | 67 | 1009.5 |
| 20260506135659 | 84 | 68 | 5.0 | 13.0 | 0.00 | 0.00 | 0.00 | 69 | 1009.9 |
| 20260506134129 | 85 | 113 | 3.0 | 9.0 | 0.00 | 0.00 | 0.00 | 68 | 1010.0 |
| 20260506133619 | 85 | 90 | 3.0 | 11.0 | 0.00 | 0.00 | 0.00 | 69 | 1009.8 |
| 20260506133109 | 83 | 158 | 4.0 | 11.0 | 0.00 | 0.00 | 0.00 | 68 | 1010.3 |
| 20260506132558 | 84 | 90 | 4.0 | 9.0 | 0.00 | 0.00 | 0.00 | 69 | 1010.0 |
| 20260506132048 | 83 | 113 | 4.0 | 9.0 | 0.00 | 0.00 | 0.00 | 70 | 1009.8 |
| 20260506131539 | 83 | 135 | 4.0 | 8.0 | 0.00 | 0.00 | 0.00 | 70 | 1009.9 |
| 20260506131029 | 84 | 158 | 2.0 | 11.0 | 0.00 | 0.00 | 0.00 | 70 | 1009.7 |
| 20260506130518 | 82 | 68 | 2.0 | 11.0 | 0.00 | 0.00 | 0.00 | 71 | 1010.0 |
| 20260506130012 | 82 | 113 | 2.0 | 9.0 | 0.00 | 0.00 | 0.00 | 71 | 1010.0 |
| 20260506125457 | 82 | 135 | 2.0 | 9.0 | 0.00 | 0.00 | 0.00 | 73 | 1010.0 |
| 20260506124948 | 81 | 113 | 4.0 | 7.0 | 0.00 | 0.00 | 0.00 | 73 | 1010.1 |
| 20260506124437 | 81 | 113 | 3.0 | 7.0 | 0.00 | 0.00 | 0.00 | 72 | 1010.1 |
| 20260506123418 | 79 | 90 | 4.0 | 8.0 | 0.00 | 0.00 | 0.00 | 75 | 1009.9 |
| 20260506122907 | 79 | 113 | 4.0 | 8.0 | 0.00 | 0.00 | 0.00 | 76 | 1009.9 |
| 20260506122357 | 79 | 113 | 3.0 | 8.0 | 0.00 | 0.00 | 0.00 | 76 | 1009.9 |
| 20260506121847 | 79 | 135 | 2.0 | 11.0 | 0.00 | 0.00 | 0.00 | 76 | 1010.0 |
| 20260506121337 | 79 | 113 | 3.0 | 11.0 | 0.00 | 0.00 | 0.00 | 76 | 1010.0 |
| 20260506120827 | 79 | 113 | 4.0 | 11.0 | 0.00 | 0.00 | 0.00 | 76 | 1009.9 |
| 20260506120317 | 79 | 203 | 3.0 | 11.0 | 0.00 | 0.00 | 0.00 | 76 | 1009.8 |
| 20260506115806 | 79 | 45 | 4.0 | 11.0 | 0.00 | 0.00 | 0.00 | 77 | 1010.0 |
| 20260506114236 | 77 | 113 | 3.0 | 11.0 | 0.00 | 0.00 | 0.00 | 80 | 1009.7 |
| 20260506113217 | 76 | 113 | 4.0 | 8.0 | 0.00 | 0.00 | 0.00 | 80 | 1009.9 |
| 20260506112706 | 76 | 90 | 4.0 | 8.0 | 0.00 | 0.00 | 0.00 | 82 | 1009.3 |
| 20260506112155 | 74 | 90 | 4.0 | 8.0 | 0.00 | 0.00 | 0.00 | 84 | 1009.5 |
| 20260506111647 | 74 | 158 | 4.0 | 7.0 | 0.00 | 0.00 | 0.00 | 85 | 1009.9 |
| 20260506110625 | 73 | 158 | 2.0 | 4.0 | 0.00 | 0.00 | 0.00 | 87 | 1010.0 |
| 20260506110115 | 73 | 158 | 3.0 | 4.0 | 0.00 | 0.00 | 0.00 | 88 | 1009.8 |
| 20260506105055 | 72 | 90 | 1.0 | 4.0 | 0.00 | 0.00 | 0.00 | 90 | 1009.8 |
| 20260506104546 | 72 | 68 | 1.0 | 4.0 | 0.00 | 0.00 | 0.00 | 90 | 1009.7 |
| 20260506103525 | 72 | 158 | 2.0 | 4.0 | 0.00 | 0.00 | 0.00 | 91 | 1009.7 |
| 20260506102505 | 72 | 113 | 2.0 | 4.0 | 0.00 | 0.00 | 0.00 | 91 | 1009.4 |
| 20260506101954 | 72 | 135 | 0.0 | 4.0 | 0.00 | 0.00 | 0.00 | 91 | 1009.3 |
| 20260506101444 | 72 | 90 | 2.0 | 6.0 | 0.00 | 0.00 | 0.00 | 91 | 1009.4 |
| 20260506100936 | 72 | 135 | 2.0 | 6.0 | 0.00 | 0.00 | 0.00 | 91 | 1009.4 |
| 20260506095914 | 72 | 158 | 2.0 | 4.0 | 0.00 | 0.00 | 0.00 | 92 | 1009.0 |
| 20260506095405 | 72 | 158 | 2.0 | 4.0 | 0.00 | 0.00 | 0.00 | 92 | 1009.2 |
| 20260506094854 | 72 | 135 | 1.0 | 4.0 | 0.00 | 0.00 | 0.00 | 91 | 1009.1 |
| 20260506094353 | 72 | 158 | 1.0 | 2.0 | 0.00 | 0.00 | 0.00 | 91 | 1009.0 |
| 20260506093324 | 72 | 158 | 1.0 | 2.0 | 0.00 | 0.00 | 0.00 | 92 | 1008.8 |
| 20260506092813 | 72 | 135 | 0.0 | 2.0 | 0.00 | 0.00 | 0.00 | 91 | 1008.9 |
| 20260506092306 | 72 | 135 | 0.0 | 2.0 | 0.00 | 0.00 | 0.00 | 91 | 1009.0 |
| 20260506091753 | 72 | 113 | 0.0 | 2.0 | 0.00 | 0.00 | 0.00 | 91 | 1008.9 |
| 20260506091242 | 72 | 135 | 1.0 | 2.0 | 0.00 | 0.00 | 0.00 | 90 | 1008.8 |
| 20260506090733 | 73 | 135 | 0.0 | 2.0 | 0.00 | 0.00 | 0.00 | 89 | 1008.7 |
| 20260506090223 | 73 | 158 | 2.0 | 2.0 | 0.00 | 0.00 | 0.00 | 89 | 1009.0 |
| 20260506085714 | 73 | 90 | 0.0 | 2.0 | 0.00 | 0.00 | 0.00 | 88 | 1008.7 |
| 20260506085203 | 73 | 158 | 1.0 | 4.0 | 0.00 | 0.00 | 0.00 | 87 | 1008.6 |
| 20260506084653 | 74 | 90 | 1.0 | 4.0 | 0.00 | 0.00 | 0.00 | 87 | 1008.7 |
| 20260506083632 | 74 | 68 | 2.0 | 4.0 | 0.00 | 0.00 | 0.00 | 87 | 1008.4 |
| 20260506082612 | 73 | 180 | 1.0 | 4.0 | 0.00 | 0.00 | 0.00 | 88 | 1008.4 |
| 20260506082102 | 73 | 158 | 2.0 | 4.0 | 0.00 | 0.00 | 0.00 | 89 | 1008.4 |
| 20260506081552 | 73 | 113 | 2.0 | 4.0 | 0.00 | 0.00 | 0.00 | 90 | 1008.3 |
| 20260506081043 | 73 | 180 | 1.0 | 2.0 | 0.00 | 0.00 | 0.00 | 90 | 1008.4 |
| 20260506080535 | 73 | 135 | 1.0 | 4.0 | 0.00 | 0.00 | 0.00 | 90 | 1008.3 |
| 20260506073431 | 72 | 135 | 0.0 | 4.0 | 0.00 | 0.00 | 0.00 | 90 | 1008.2 |
| 20260506072921 | 72 | 113 | 1.0 | 4.0 | 0.00 | 0.00 | 0.00 | 90 | 1008.4 |
| 20260506072411 | 72 | 135 | 0.0 | 2.0 | 0.00 | 0.00 | 0.00 | 90 | 1008.3 |
| 20260506071901 | 72 | 135 | 2.0 | 2.0 | 0.00 | 0.00 | 0.00 | 90 | 1008.4 |
| 20260506071350 | 73 | 135 | 1.0 | 4.0 | 0.00 | 0.00 | 0.00 | 90 | 1008.5 |
| 20260506070840 | 72 | 135 | 1.0 | 4.0 | 0.00 | 0.00 | 0.00 | 91 | 1008.3 |
| 20260506070330 | 72 | 135 | 1.0 | 2.0 | 0.00 | 0.00 | 0.00 | 91 | 1008.4 |
| 20260506062155 | 72 | 135 | 0.0 | 2.0 | 0.00 | 0.00 | 0.00 | 91 | 1008.6 |
| 20260506061646 | 73 | 135 | 1.0 | 2.0 | 0.00 | 0.00 | 0.00 | 91 | 1008.5 |
| 20260506061135 | 72 | 135 | 0.0 | 2.0 | 0.00 | 0.00 | 0.00 | 91 | 1008.6 |
| 20260506060626 | 72 | 113 | 0.0 | 0.0 | 0.00 | 0.00 | 0.00 | 92 | 1008.4 |
| 20260506050912 | 72 | 135 | 0.0 | 2.0 | 0.00 | 0.00 | 0.00 | 92 | 1008.6 |
| 20260506050401 | 72 | 135 | 0.0 | 2.0 | 0.00 | 0.00 | 0.00 | 92 | 1008.8 |
| 20260506044321 | 72 | 135 | 0.0 | 2.0 | 0.00 | 0.00 | 0.00 | 92 | 1008.9 |
| 20260506043810 | 73 | 113 | 0.0 | 2.0 | 0.00 | 0.00 | 0.00 | 91 | 1008.9 |
| 20260506043300 | 73 | 135 | 0.0 | 2.0 | 0.00 | 0.00 | 0.00 | 91 | 1008.7 |
| 20260506042751 | 73 | 113 | 0.0 | 2.0 | 0.00 | 0.00 | 0.00 | 92 | 1008.9 |
| 20260506042241 | 73 | 135 | 0.0 | 2.0 | 0.00 | 0.00 | 0.00 | 91 | 1008.9 |
| 20260506041731 | 73 | 135 | 0.0 | 2.0 | 0.00 | 0.00 | 0.00 | 91 | 1008.9 |
| 20260506041220 | 73 | 135 | 1.0 | 2.0 | 0.00 | 0.00 | 0.00 | 91 | 1008.8 |
| 20260506040200 | 73 | 113 | 0.0 | 2.0 | 0.00 | 0.00 | 0.00 | 91 | 1008.8 |
| 20260506035141 | 73 | 113 | 1.0 | 2.0 | 0.00 | 0.00 | 0.00 | 91 | 1008.7 |
| 20260506034630 | 73 | 113 | 0.0 | 2.0 | 0.00 | 0.00 | 0.00 | 91 | 1008.7 |
| 20260506034120 | 73 | 135 | 0.0 | 2.0 | 0.00 | 0.00 | 0.00 | 91 | 1009.0 |
| 20260506033609 | 73 | 135 | 0.0 | 2.0 | 0.00 | 0.00 | 0.00 | 90 | 1009.0 |
| 20260506032549 | 74 | 135 | 0.0 | 2.0 | 0.00 | 0.00 | 0.00 | 90 | 1009.1 |
| 20260506032039 | 74 | 113 | 0.0 | 2.0 | 0.00 | 0.00 | 0.00 | 89 | 1009.0 |
| 20260506031529 | 74 | 135 | 0.0 | 2.0 | 0.00 | 0.00 | 0.00 | 90 | 1009.1 |
| 20260506031018 | 74 | 135 | 0.0 | 2.0 | 0.00 | 0.00 | 0.00 | 89 | 1009.0 |
| 20260506030508 | 74 | 135 | 0.0 | 2.0 | 0.00 | 0.00 | 0.00 | 89 | 1009.2 |
| 20260506025958 | 74 | 135 | 0.0 | 2.0 | 0.00 | 0.00 | 0.00 | 89 | 1009.2 |
| 20260506025448 | 74 | 135 | 0.0 | 2.0 | 0.00 | 0.00 | 0.00 | 88 | 1009.2 |
| 20260506024939 | 75 | 135 | 0.0 | 2.0 | 0.00 | 0.00 | 0.00 | 88 | 1009.2 |
| 20260506024428 | 75 | 90 | 0.0 | 2.0 | 0.00 | 0.00 | 0.00 | 88 | 1009.2 |
| 20260506023408 | 75 | 158 | 1.0 | 2.0 | 0.00 | 0.00 | 0.00 | 88 | 1009.1 |
| 20260506022857 | 75 | 113 | 1.0 | 2.0 | 0.00 | 0.00 | 0.00 | 88 | 1009.2 |
| 20260506022347 | 75 | 135 | 1.0 | 4.0 | 0.00 | 0.00 | 0.00 | 88 | 1009.1 |
| 20260506021328 | 76 | 135 | 0.0 | 4.0 | 0.00 | 0.00 | 0.00 | 87 | 1009.2 |
| 20260506020817 | 76 | 135 | 1.0 | 4.0 | 0.00 | 0.00 | 0.00 | 87 | 1009.2 |
| 20260506020307 | 76 | 158 | 1.0 | 4.0 | 0.00 | 0.00 | 0.00 | 87 | 1009.2 |
| 20260506015757 | 76 | 113 | 2.0 | 4.0 | 0.00 | 0.00 | 0.00 | 87 | 1009.2 |
| 20260506014737 | 76 | 135 | 1.0 | 2.0 | 0.00 | 0.00 | 0.00 | 87 | 1009.3 |
| 20260506014226 | 76 | 135 | 0.0 | 2.0 | 0.00 | 0.00 | 0.00 | 87 | 1009.4 |
| 20260506013717 | 76 | 158 | 1.0 | 2.0 | 0.00 | 0.00 | 0.00 | 87 | 1009.4 |
| 20260506013207 | 76 | 158 | 0.0 | 4.0 | 0.00 | 0.00 | 0.00 | 86 | 1009.4 |
| 20260506012145 | 77 | 180 | 0.0 | 4.0 | 0.00 | 0.00 | 0.00 | 86 | 1009.3 |
| 20260506011636 | 77 | 203 | 2.0 | 4.0 | 0.00 | 0.00 | 0.00 | 85 | 1009.3 |
| 20260506011126 | 77 | 113 | 0.0 | 4.0 | 0.00 | 0.00 | 0.00 | 85 | 1009.2 |
| 20260506010615 | 77 | 90 | 1.0 | 2.0 | 0.00 | 0.00 | 0.00 | 85 | 1009.2 |
| 20260506010106 | 77 | 135 | 2.0 | 4.0 | 0.00 | 0.00 | 0.00 | 85 | 1009.1 |
| 20260506005556 | 77 | 158 | 1.0 | 4.0 | 0.00 | 0.00 | 0.00 | 85 | 1009.2 |
| 20260506004535 | 78 | 135 | 1.0 | 4.0 | 0.00 | 0.00 | 0.00 | 84 | 1009.2 |
| 20260506004025 | 77 | 158 | 2.0 | 4.0 | 0.00 | 0.00 | 0.00 | 85 | 1009.1 |
| 20260506003516 | 77 | 158 | 1.0 | 2.0 | 0.00 | 0.00 | 0.00 | 85 | 1009.2 |
| 20260506003006 | 77 | 158 | 0.0 | 2.0 | 0.00 | 0.00 | 0.00 | 85 | 1009.2 |
| 20260506002455 | 78 | 135 | 1.0 | 2.0 | 0.00 | 0.00 | 0.00 | 84 | 1009.0 |
| 20260506001945 | 78 | 113 | 1.0 | 2.0 | 0.00 | 0.00 | 0.00 | 83 | 1009.1 |
| 20260506001435 | 78 | 158 | 0.0 | 4.0 | 0.00 | 0.00 | 0.00 | 82 | 1009.0 |
| 20260506000924 | 79 | 158 | 1.0 | 4.0 | 0.00 | 0.00 | 0.00 | 82 | 1009.0 |
| 20260506000416 | 79 | 158 | 1.0 | 2.0 | 0.00 | 0.00 | 0.00 | 82 | 1009.2 |
| 20260505235354 | 79 | 158 | 0.0 | 4.0 | 0.00 | 0.00 | 0.00 | 82 | 1009.0 |
| 20260505234844 | 79 | 158 | 2.0 | 4.0 | 0.00 | 0.00 | 0.00 | 82 | 1008.9 |
| 20260505234334 | 79 | 135 | 1.0 | 4.0 | 0.00 | 0.00 | 0.00 | 82 | 1008.8 |
| 20260505233824 | 79 | 113 | 0.0 | 2.0 | 0.00 | 0.00 | 0.00 | 82 | 1008.8 |
| 20260505233313 | 79 | 135 | 0.0 | 2.0 | 0.00 | 0.00 | 0.00 | 82 | 1008.7 |
| 20260505232254 | 78 | 135 | 1.0 | 2.0 | 0.00 | 0.00 | 0.00 | 83 | 1008.7 |
| 20260505231743 | 79 | 158 | 0.0 | 2.0 | 0.00 | 0.00 | 0.00 | 83 | 1008.6 |
| 20260505231233 | 79 | 135 | 1.0 | 2.0 | 0.00 | 0.00 | 0.00 | 82 | 1008.7 |
| 20260505230723 | 79 | 135 | 0.0 | 2.0 | 0.00 | 0.00 | 0.00 | 82 | 1008.7 |
| 20260505230214 | 79 | 158 | 0.0 | 2.0 | 0.00 | 0.00 | 0.00 | 83 | 1008.5 |
| 20260505225703 | 79 | 158 | 0.0 | 2.0 | 0.00 | 0.00 | 0.00 | 82 | 1008.7 |
| 20260505225153 | 78 | 135 | 0.0 | 2.0 | 0.00 | 0.00 | 0.00 | 82 | 1008.5 |
| 20260505224644 | 78 | 158 | 0.0 | 2.0 | 0.00 | 0.00 | 0.00 | 81 | 1008.5 |
| 20260505223622 | 78 | 135 | 0.0 | 2.0 | 0.00 | 0.00 | 0.00 | 81 | 1008.3 |
| 20260505223112 | 78 | 113 | 1.0 | 2.0 | 0.00 | 0.00 | 0.00 | 81 | 1008.2 |
| 20260505222052 | 79 | 135 | 0.0 | 2.0 | 0.00 | 0.00 | 0.00 | 81 | 1008.1 |
| 20260505221542 | 79 | 135 | 0.0 | 2.0 | 0.00 | 0.00 | 0.00 | 81 | 1008.2 |
| 20260505221032 | 79 | 135 | 1.0 | 2.0 | 0.00 | 0.00 | 0.00 | 81 | 1008.1 |
| 20260505220522 | 79 | 113 | 0.0 | 0.0 | 0.00 | 0.00 | 0.00 | 81 | 1008.1 |
| 20260505220011 | 79 | 113 | 0.0 | 0.0 | 0.00 | 0.00 | 0.00 | 81 | 1008.0 |
| 20260505214951 | 80 | 113 | 0.0 | 2.0 | 0.00 | 0.00 | 0.00 | 79 | 1008.0 |
| 20260505214441 | 80 | 113 | 0.0 | 2.0 | 0.00 | 0.00 | 0.00 | 77 | 1008.0 |
| 20260505213931 | 81 | 113 | 0.0 | 2.0 | 0.00 | 0.00 | 0.00 | 76 | 1008.0 |
| 20260505213421 | 81 | 113 | 0.0 | 2.0 | 0.00 | 0.00 | 0.00 | 75 | 1008.0 |
| 20260505212401 | 82 | 113 | 0.0 | 4.0 | 0.00 | 0.00 | 0.00 | 72 | 1008.0 |
| 20260505211851 | 83 | 113 | 0.0 | 4.0 | 0.00 | 0.00 | 0.00 | 71 | 1007.7 |